Time,TemperatureF,DewpointF,PressureIn,WindDirection,WindDirectionDegrees,WindSpeedMPH,WindSpeedGustMPH,Humidity,HourlyPrecipIn,Conditions,Clouds,dailyrainin,SoftwareType,DateUTC
2013-03-05 00:02:00,34.0,14.0,-100.00,North,350,8.0,15.0,44,-99.99,,,-99.99,,2013-03-05 05:02:00,
2013-03-05 00:12:00,33.0,14.0,-100.00,North,355,6.0,17.0,44,-99.99,,,-99.99,,2013-03-05 05:12:00,
2013-03-05 00:22:00,33.0,14.0,-100.00,North,355,6.0,17.0,44,-99.99,,,-99.99,,2013-03-05 05:22:00,
2013-03-05 00:32:00,33.0,14.0,-100.00,North,0,9.0,15.0,45,-99.99,,,-99.99,,2013-03-05 05:32:00,
2013-03-05 00:42:00,33.0,14.0,-100.00,NNW,335,6.0,14.0,45,-99.99,,,-99.99,,2013-03-05 05:42:00,
2013-03-05 00:52:00,33.0,14.0,-100.00,NNW,335,6.0,14.0,45,-99.99,,,-99.99,,2013-03-05 05:52:00,
2013-03-05 01:02:00,33.0,14.0,-100.00,NW,325,6.0,17.0,46,-99.99,,,-99.99,,2013-03-05 06:02:00,
2013-03-05 01:11:00,33.0,14.0,-100.00,North,0,3.0,9.0,46,-99.99,,,-99.99,,2013-03-05 06:11:00,
2013-03-05 01:22:00,33.0,14.0,-100.00,North,0,3.0,9.0,46,-99.99,,,-99.99,,2013-03-05 06:22:00,
2013-03-05 01:32:00,32.0,14.0,-100.00,North,0,5.0,10.0,47,-99.99,,,-99.99,,2013-03-05 06:32:00,
2013-03-05 01:42:00,32.0,14.0,-100.00,North,0,3.0,10.0,47,-99.99,,,-99.99,,2013-03-05 06:42:00,
2013-03-05 01:52:00,32.0,14.0,-100.00,North,350,5.0,8.0,47,-99.99,,,-99.99,,2013-03-05 06:52:00,
2013-03-05 02:01:00,32.0,14.0,-100.00,North,350,5.0,8.0,47,-99.99,,,-99.99,,2013-03-05 07:01:00,
2013-03-05 02:11:00,32.0,14.0,-100.00,NNW,335,2.0,13.0,48,-99.99,,,-99.99,,2013-03-05 07:11:00,
2013-03-05 02:22:00,32.0,14.0,-100.00,NNW,335,2.0,13.0,48,-99.99,,,-99.99,,2013-03-05 07:22:00,
2013-03-05 02:30:00,31.0,15.0,-100.00,North,0,6.0,14.0,49,-99.99,,,-99.99,,2013-03-05 07:30:00,
2013-03-05 02:32:00,32.0,14.0,-100.00,North,0,6.0,9.0,48,-99.99,,,-99.99,,2013-03-05 07:32:00,
2013-03-05 02:42:00,32.0,14.0,-100.00,NNW,340,4.0,13.0,48,-99.99,,,-99.99,,2013-03-05 07:42:00,
2013-03-05 02:52:00,31.0,15.0,-100.00,NNW,345,5.0,9.0,49,-99.99,,,-99.99,,2013-03-05 07:52:00,
2013-03-05 03:02:00,31.0,15.0,-100.00,NNW,345,5.0,9.0,49,-99.99,,,-99.99,,2013-03-05 08:02:00,
2013-03-05 03:11:00,31.0,15.0,-100.00,North,0,6.0,14.0,49,-99.99,,,-99.99,,2013-03-05 08:11:00,
2013-03-05 03:21:00,31.0,15.0,-100.00,North,0,6.0,14.0,49,-99.99,,,-99.99,,2013-03-05 08:21:00,
2013-03-05 03:42:00,32.0,15.0,-100.00,North,5,5.0,13.0,49,-99.99,,,-99.99,,2013-03-05 08:42:00,
2013-03-05 03:52:00,32.0,15.0,-100.00,North,5,5.0,13.0,49,-99.99,,,-99.99,,2013-03-05 08:52:00,
2013-03-05 04:02:00,31.0,15.0,-100.00,NW,310,5.0,14.0,50,-99.99,,,-99.99,,2013-03-05 09:02:00,
2013-03-05 04:11:00,31.0,15.0,-100.00,North,0,2.0,9.0,50,-99.99,,,-99.99,,2013-03-05 09:11:00,
2013-03-05 04:21:00,31.0,15.0,-100.00,North,0,2.0,9.0,50,-99.99,,,-99.99,,2013-03-05 09:21:00,
2013-03-05 04:32:00,31.0,15.0,-100.00,North,10,3.0,10.0,51,-99.99,,,-99.99,,2013-03-05 09:32:00,
2013-03-05 04:43:00,31.0,15.0,-100.00,North,0,4.0,14.0,51,-99.99,,,-99.99,,2013-03-05 09:43:00,
2013-03-05 04:52:00,31.0,15.0,-100.00,North,0,4.0,14.0,51,-99.99,,,-99.99,,2013-03-05 09:52:00,
2013-03-05 05:00:00,30.0,15.0,-100.00,NW,310,4.0,9.0,53,-99.99,,,-99.99,,2013-03-05 10:00:00,
2013-03-05 05:02:00,31.0,15.0,-100.00,North,0,5.0,13.0,51,-99.99,,,-99.99,,2013-03-05 10:02:00,
2013-03-05 05:11:00,31.0,15.0,-100.00,West,270,2.0,8.0,52,-99.99,,,-99.99,,2013-03-05 10:11:00,
2013-03-05 05:22:00,31.0,15.0,-100.00,West,270,2.0,8.0,52,-99.99,,,-99.99,,2013-03-05 10:22:00,
2013-03-05 05:32:00,30.0,15.0,-100.00,NW,305,1.0,5.0,53,-99.99,,,-99.99,,2013-03-05 10:32:00,
2013-03-05 05:42:00,30.0,15.0,-100.00,NW,310,4.0,9.0,53,-99.99,,,-99.99,,2013-03-05 10:42:00,
2013-03-05 05:52:00,30.0,15.0,-100.00,NW,310,4.0,9.0,53,-99.99,,,-99.99,,2013-03-05 10:52:00,
2013-03-05 06:12:00,30.0,15.0,-100.00,NW,315,4.0,9.0,54,-99.99,,,-99.99,,2013-03-05 11:12:00,
2013-03-05 06:22:00,30.0,15.0,-100.00,NW,315,4.0,9.0,54,-99.99,,,-99.99,,2013-03-05 11:22:00,
2013-03-05 06:32:00,30.0,16.0,-100.00,WNW,300,2.0,6.0,55,-99.99,,,-99.99,,2013-03-05 11:32:00,
2013-03-05 06:42:00,29.0,15.0,-100.00,NW,310,3.0,9.0,55,-99.99,,,-99.99,,2013-03-05 11:42:00,
2013-03-05 06:52:00,29.0,15.0,-100.00,NW,310,3.0,9.0,55,-99.99,,,-99.99,,2013-03-05 11:52:00,
2013-03-05 07:02:00,29.0,16.0,-100.00,NW,320,3.0,8.0,56,-99.99,,,-99.99,,2013-03-05 12:02:00,
2013-03-05 07:12:00,29.0,16.0,-100.00,NW,325,4.0,8.0,57,-99.99,,,-99.99,,2013-03-05 12:12:00,
2013-03-05 07:22:00,29.0,16.0,-100.00,NW,325,4.0,8.0,57,-99.99,,,-99.99,,2013-03-05 12:22:00,
2013-03-05 07:32:00,29.0,16.0,-100.00,NW,315,2.0,9.0,57,-99.99,,,-99.99,,2013-03-05 12:32:00,
2013-03-05 07:42:00,30.0,17.0,-100.00,WNW,285,2.0,9.0,57,-99.99,,,-99.99,,2013-03-05 12:42:00,
2013-03-05 07:53:00,30.0,17.0,-100.00,WNW,285,2.0,9.0,57,-99.99,,,-99.99,,2013-03-05 12:53:00,
2013-03-05 08:02:00,31.0,17.0,-100.00,North,0,4.0,10.0,55,-99.99,,,-99.99,,2013-03-05 13:02:00,
2013-03-05 08:12:00,32.0,17.0,-100.00,North,355,5.0,10.0,54,-99.99,,,-99.99,,2013-03-05 13:12:00,
2013-03-05 08:22:00,32.0,17.0,-100.00,North,355,5.0,10.0,54,-99.99,,,-99.99,,2013-03-05 13:22:00,
2013-03-05 08:32:00,33.0,17.0,-100.00,North,0,5.0,10.0,51,-99.99,,,-99.99,,2013-03-05 13:32:00,
2013-03-05 08:42:00,34.0,17.0,-100.00,North,0,7.0,11.0,51,-99.99,,,-99.99,,2013-03-05 13:42:00,
2013-03-05 08:52:00,34.0,17.0,-100.00,North,0,7.0,11.0,51,-99.99,,,-99.99,,2013-03-05 13:52:00,
2013-03-05 09:02:00,35.0,18.0,-100.00,North,0,7.0,13.0,50,-99.99,,,-99.99,,2013-03-05 14:02:00,
2013-03-05 09:11:00,35.0,17.0,-100.00,NNE,25,6.0,14.0,48,-99.99,,,-99.99,,2013-03-05 14:11:00,
2013-03-05 09:22:00,35.0,17.0,-100.00,NNE,25,6.0,14.0,48,-99.99,,,-99.99,,2013-03-05 14:22:00,
2013-03-05 09:32:00,35.0,17.0,-100.00,North,0,5.0,15.0,47,-99.99,,,-99.99,,2013-03-05 14:32:00,
2013-03-05 09:42:00,36.0,17.0,-100.00,WNW,300,5.0,13.0,46,-99.99,,,-99.99,,2013-03-05 14:42:00,
2013-03-05 09:52:00,36.0,17.0,-100.00,WNW,300,5.0,13.0,46,-99.99,,,-99.99,,2013-03-05 14:52:00,
2013-03-05 10:02:00,36.0,18.0,-100.00,North,355,3.0,12.0,46,-99.99,,,-99.99,,2013-03-05 15:02:00,
2013-03-05 10:11:00,37.0,18.0,-100.00,NNW,340,6.0,14.0,44,-99.99,,,-99.99,,2013-03-05 15:11:00,
2013-03-05 10:22:00,37.0,18.0,-100.00,NNW,340,6.0,14.0,44,-99.99,,,-99.99,,2013-03-05 15:22:00,
2013-03-05 10:32:00,38.0,18.0,-100.00,NE,50,2.0,12.0,44,-99.99,,,-99.99,,2013-03-05 15:32:00,
2013-03-05 10:42:00,38.0,18.0,-100.00,NNW,340,4.0,12.0,43,-99.99,,,-99.99,,2013-03-05 15:42:00,
2013-03-05 10:52:00,38.0,18.0,-100.00,NNW,340,4.0,12.0,43,-99.99,,,-99.99,,2013-03-05 15:52:00,
2013-03-05 11:02:00,39.0,18.0,-100.00,North,0,6.0,11.0,42,-99.99,,,-99.99,,2013-03-05 16:02:00,
2013-03-05 11:11:00,39.0,18.0,-100.00,NE,35,4.0,12.0,41,-99.99,,,-99.99,,2013-03-05 16:11:00,
2013-03-05 11:22:00,39.0,18.0,-100.00,NE,35,4.0,12.0,41,-99.99,,,-99.99,,2013-03-05 16:22:00,
2013-03-05 11:32:00,40.0,18.0,-100.00,North,0,4.0,12.0,41,-99.99,,,-99.99,,2013-03-05 16:32:00,
2013-03-05 11:42:00,41.0,18.0,-100.00,North,0,5.0,11.0,40,-99.99,,,-99.99,,2013-03-05 16:42:00,
2013-03-05 11:52:00,41.0,18.0,-100.00,North,0,5.0,11.0,40,-99.99,,,-99.99,,2013-03-05 16:52:00,
2013-03-05 12:01:00,42.0,18.0,-100.00,NE,50,7.0,11.0,39,-99.99,,,-99.99,,2013-03-05 17:01:00,
2013-03-05 12:11:00,43.0,19.0,-100.00,North,5,4.0,12.0,39,-99.99,,,-99.99,,2013-03-05 17:11:00,
2013-03-05 12:22:00,43.0,19.0,-100.00,North,5,4.0,12.0,39,-99.99,,,-99.99,,2013-03-05 17:22:00,
2013-03-05 12:32:00,43.0,19.0,-100.00,NE,45,7.0,11.0,38,-99.99,,,-99.99,,2013-03-05 17:32:00,
2013-03-05 12:42:00,44.0,19.0,-100.00,ESE,105,5.0,11.0,37,-99.99,,,-99.99,,2013-03-05 17:42:00,
2013-03-05 12:53:00,44.0,19.0,-100.00,ESE,105,5.0,11.0,37,-99.99,,,-99.99,,2013-03-05 17:53:00,
2013-03-05 13:02:00,45.0,19.0,-100.00,North,10,3.0,11.0,36,-99.99,,,-99.99,,2013-03-05 18:02:00,
2013-03-05 13:11:00,45.0,19.0,-100.00,North,10,3.0,11.0,36,-99.99,,,-99.99,,2013-03-05 18:11:00,
2013-03-05 13:32:00,47.0,20.0,-100.00,NNE,15,2.0,8.0,34,-99.99,,,-99.99,,2013-03-05 18:32:00,
2013-03-05 13:42:00,46.0,18.0,-100.00,NNW,335,4.0,7.0,33,-99.99,,,-99.99,,2013-03-05 18:42:00,
2013-03-05 13:52:00,46.0,18.0,-100.00,NNW,335,4.0,7.0,33,-99.99,,,-99.99,,2013-03-05 18:52:00,
2013-03-05 14:01:00,47.0,19.0,-100.00,North,0,5.0,8.0,33,-99.99,,,-99.99,,2013-03-05 19:01:00,
2013-03-05 14:11:00,46.0,19.0,-100.00,NNE,20,3.0,7.0,33,-99.99,,,-99.99,,2013-03-05 19:11:00,
2013-03-05 14:22:00,46.0,19.0,-100.00,NNE,20,3.0,7.0,33,-99.99,,,-99.99,,2013-03-05 19:22:00,
2013-03-05 14:32:00,47.0,18.0,-100.00,NW,325,1.0,3.0,32,-99.99,,,-99.99,,2013-03-05 19:32:00,
2013-03-05 14:42:00,47.0,18.0,-100.00,NE,50,4.0,7.0,32,-99.99,,,-99.99,,2013-03-05 19:42:00,
2013-03-05 14:52:00,47.0,18.0,-100.00,NE,50,4.0,7.0,32,-99.99,,,-99.99,,2013-03-05 19:52:00,
2013-03-05 15:01:00,47.0,18.0,-100.00,NE,50,4.0,8.0,32,-99.99,,,-99.99,,2013-03-05 20:01:00,
2013-03-05 15:11:00,47.0,18.0,-100.00,North,350,1.0,9.0,32,-99.99,,,-99.99,,2013-03-05 20:11:00,
2013-03-05 15:22:00,47.0,18.0,-100.00,North,350,1.0,9.0,32,-99.99,,,-99.99,,2013-03-05 20:22:00,
2013-03-05 15:32:00,47.0,19.0,-100.00,WSW,245,2.0,4.0,32,-99.99,,,-99.99,,2013-03-05 20:32:00,
2013-03-05 15:42:00,47.0,19.0,-100.00,SSE,160,2.0,4.0,32,-99.99,,,-99.99,,2013-03-05 20:42:00,
2013-03-05 15:52:00,47.0,19.0,-100.00,SSE,160,2.0,4.0,32,-99.99,,,-99.99,,2013-03-05 20:52:00,
2013-03-05 16:02:00,48.0,19.0,-100.00,NE,55,3.0,6.0,31,-99.99,,,-99.99,,2013-03-05 21:02:00,
2013-03-05 16:11:00,48.0,19.0,-100.00,North,5,2.0,7.0,31,-99.99,,,-99.99,,2013-03-05 21:11:00,
2013-03-05 16:22:00,48.0,19.0,-100.00,North,5,2.0,7.0,31,-99.99,,,-99.99,,2013-03-05 21:22:00,
2013-03-05 16:32:00,48.0,19.0,-100.00,East,95,2.0,4.0,31,-99.99,,,-99.99,,2013-03-05 21:32:00,
2013-03-05 16:42:00,48.0,19.0,-100.00,South,180,3.0,9.0,31,-99.99,,,-99.99,,2013-03-05 21:42:00,
2013-03-05 16:52:00,48.0,19.0,-100.00,South,180,3.0,9.0,31,-99.99,,,-99.99,,2013-03-05 21:52:00,
2013-03-05 17:01:00,48.0,19.0,-100.00,South,170,2.0,6.0,32,-99.99,,,-99.99,,2013-03-05 22:01:00,
2013-03-05 17:12:00,47.0,18.0,-100.00,SE,140,4.0,10.0,32,-99.99,,,-99.99,,2013-03-05 22:12:00,
2013-03-05 17:22:00,47.0,18.0,-100.00,SE,140,4.0,10.0,32,-99.99,,,-99.99,,2013-03-05 22:22:00,
2013-03-05 17:32:00,46.0,18.0,-100.00,South,170,2.0,7.0,33,-99.99,,,-99.99,,2013-03-05 22:32:00,
2013-03-05 17:42:00,45.0,18.0,-100.00,South,175,2.0,10.0,34,-99.99,,,-99.99,,2013-03-05 22:42:00,
2013-03-05 17:52:00,45.0,18.0,-100.00,South,175,2.0,10.0,34,-99.99,,,-99.99,,2013-03-05 22:52:00,
2013-03-05 18:01:00,45.0,19.0,-100.00,South,180,4.0,9.0,35,-99.99,,,-99.99,,2013-03-05 23:01:00,
2013-03-05 18:11:00,44.0,19.0,-100.00,SSE,160,3.0,7.0,36,-99.99,,,-99.99,,2013-03-05 23:11:00,
2013-03-05 18:22:00,44.0,19.0,-100.00,SSE,160,3.0,7.0,36,-99.99,,,-99.99,,2013-03-05 23:22:00,
2013-03-05 18:32:00,43.0,19.0,-100.00,South,170,2.0,5.0,37,-99.99,,,-99.99,,2013-03-05 23:32:00,
2013-03-05 18:42:00,42.0,19.0,-100.00,South,170,1.0,5.0,39,-99.99,,,-99.99,,2013-03-05 23:42:00,
2013-03-05 18:52:00,40.0,18.0,-100.00,SW,220,1.0,3.0,41,-99.99,,,-99.99,,2013-03-05 23:52:00,
2013-03-05 19:02:00,40.0,18.0,-100.00,SW,220,1.0,3.0,41,-99.99,,,-99.99,,2013-03-06 00:02:00,
2013-03-05 19:11:00,40.0,19.0,-100.00,South,180,0.0,3.0,42,-99.99,,,-99.99,,2013-03-06 00:11:00,
2013-03-05 19:22:00,40.0,19.0,-100.00,South,180,0.0,3.0,42,-99.99,,,-99.99,,2013-03-06 00:22:00,
2013-03-05 19:32:00,39.0,19.0,-100.00,SW,215,1.0,3.0,45,-99.99,,,-99.99,,2013-03-06 00:32:00,
2013-03-05 19:42:00,38.0,19.0,-100.00,SW,230,1.0,3.0,47,-99.99,,,-99.99,,2013-03-06 00:42:00,
2013-03-05 19:52:00,38.0,19.0,-100.00,SW,230,1.0,3.0,47,-99.99,,,-99.99,,2013-03-06 00:52:00,
2013-03-05 20:02:00,37.0,20.0,-100.00,SW,235,0.0,2.0,50,-99.99,,,-99.99,,2013-03-06 01:02:00,
2013-03-05 20:11:00,36.0,21.0,-100.00,South,175,0.0,3.0,53,-99.99,,,-99.99,,2013-03-06 01:11:00,
2013-03-05 20:22:00,36.0,21.0,-100.00,South,175,0.0,3.0,53,-99.99,,,-99.99,,2013-03-06 01:22:00,
2013-03-05 20:32:00,36.0,21.0,-100.00,WSW,250,0.0,4.0,55,-99.99,,,-99.99,,2013-03-06 01:32:00,
2013-03-05 20:42:00,35.0,21.0,-100.00,SW,225,0.0,2.0,57,-99.99,,,-99.99,,2013-03-06 01:42:00,
2013-03-05 20:52:00,35.0,22.0,-100.00,South,175,0.0,2.0,60,-99.99,,,-99.99,,2013-03-06 01:52:00,
2013-03-05 21:01:00,35.0,22.0,-100.00,South,175,0.0,2.0,60,-99.99,,,-99.99,,2013-03-06 02:01:00,
2013-03-05 21:11:00,35.0,23.0,-100.00,South,175,0.0,2.0,62,-99.99,,,-99.99,,2013-03-06 02:11:00,
2013-03-05 21:22:00,35.0,23.0,-100.00,South,175,0.0,2.0,62,-99.99,,,-99.99,,2013-03-06 02:22:00,
2013-03-05 21:32:00,34.0,23.0,-100.00,South,180,0.0,1.0,63,-99.99,,,-99.99,,2013-03-06 02:32:00,
2013-03-05 21:42:00,33.0,23.0,-100.00,NE,50,0.0,2.0,66,-99.99,,,-99.99,,2013-03-06 02:42:00,
2013-03-05 21:52:00,33.0,23.0,-100.00,NE,50,0.0,2.0,66,-99.99,,,-99.99,,2013-03-06 02:52:00,
2013-03-05 22:02:00,33.0,24.0,-100.00,ENE,65,0.0,2.0,68,-99.99,,,-99.99,,2013-03-06 03:02:00,
2013-03-05 22:11:00,32.0,24.0,-100.00,NE,50,1.0,2.0,70,-99.99,,,-99.99,,2013-03-06 03:11:00,
2013-03-05 22:22:00,32.0,24.0,-100.00,NE,50,1.0,2.0,70,-99.99,,,-99.99,,2013-03-06 03:22:00,
2013-03-05 22:32:00,32.0,24.0,-100.00,ENE,65,0.0,1.0,71,-99.99,,,-99.99,,2013-03-06 03:32:00,
2013-03-05 22:42:00,32.0,24.0,-100.00,NE,55,0.0,1.0,73,-99.99,,,-99.99,,2013-03-06 03:42:00,
2013-03-05 22:52:00,32.0,24.0,-100.00,NE,55,0.0,1.0,73,-99.99,,,-99.99,,2013-03-06 03:52:00,
2013-03-05 23:02:00,31.0,24.0,-100.00,ENE,60,0.0,1.0,74,-99.99,,,-99.99,,2013-03-06 04:02:00,
2013-03-05 23:11:00,31.0,24.0,-100.00,East,80,0.0,0.0,76,-99.99,,,-99.99,,2013-03-06 04:11:00,
2013-03-05 23:22:00,31.0,24.0,-100.00,East,80,0.0,0.0,76,-99.99,,,-99.99,,2013-03-06 04:22:00,
2013-03-05 23:32:00,31.0,25.0,-100.00,ENE,60,0.0,1.0,79,-99.99,,,-99.99,,2013-03-06 04:32:00,
2013-03-05 23:42:00,31.0,25.0,-100.00,East,100,0.0,1.0,81,-99.99,,,-99.99,,2013-03-06 04:42:00,
2013-03-05 23:52:00,31.0,25.0,-100.00,East,100,0.0,1.0,81,-99.99,,,-99.99,,2013-03-06 04:52:00,